This is the latest recevied weather packets stored in our database for station/object K8DJB-1. If no packets are shown the sender has not sent any weather packets the latest 10 day(s).
| Time | Temp. | Humidity | Pressure | Rain* | Wind** | Luminosity | Snow |
|---|---|---|---|---|---|---|---|
| 1777929598 | 23.89° C | 33% | 998 hPa | 0 mm | - | - | - |
| 1777929299 | 23.89° C | 34% | 998.1 hPa | 0 mm | - | - | - |
| 1777928999 | 23.89° C | 36% | 998.1 hPa | 0 mm | - | - | - |
| 1777928699 | 23.89° C | 34% | 998.3 hPa | 0 mm | - | - | - |
| 1777928398 | 23.89° C | 34% | 998.3 hPa | 0 mm | - | - | - |
| 1777927920 | 23.89° C | 34% | 998.6 hPa | 0 mm | - | - | - |
| 1777927620 | 23.89° C | 33% | 998.5 hPa | 0 mm | - | - | - |
| 1777927320 | 23.89° C | 33% | 998.7 hPa | 0 mm | - | - | - |
| 1777927020 | 23.89° C | 31% | 998.9 hPa | 0 mm | - | - | - |
| 1777926720 | 23.89° C | 32% | 998.7 hPa | 0 mm | - | - | - |
| 1777926421 | 23.89° C | 30% | 998.8 hPa | 0 mm | - | - | - |
| 1777926120 | 23.89° C | 32% | 998.8 hPa | 0 mm | - | - | - |
| 1777925820 | 23.89° C | 30% | 998.9 hPa | 0 mm | - | - | - |
| 1777925520 | 23.89° C | 29% | 998.9 hPa | 0 mm | - | - | - |
| 1777925221 | 24.44° C | 33% | 998.9 hPa | 0 mm | - | - | - |
| 1777924920 | 23.89° C | 29% | 998.9 hPa | 0 mm | - | - | - |
| 1777924620 | 23.89° C | 30% | 998.8 hPa | 0 mm | - | - | - |
| 1777924320 | 23.89° C | 29% | 998.8 hPa | 0 mm | - | - | - |
| 1777924020 | 23.33° C | 29% | 999 hPa | 0 mm | - | - | - |
| 1777923720 | 23.89° C | 29% | 999 hPa | 0 mm | - | - | - |
| 1777923420 | 23.89° C | 30% | 999 hPa | 0 mm | - | - | - |
| 1777923120 | 23.89° C | 31% | 999 hPa | 0 mm | - | - | - |
| 1777922820 | 23.89° C | 31% | 999.1 hPa | 0 mm | - | - | - |
| 1777922520 | 23.89° C | 32% | 999 hPa | 0 mm | - | - | - |
| 1777922220 | 23.33° C | 31% | 999 hPa | 0 mm | - | - | - |
* Rain latest hour (hover to see other rain measurements)
** Current wind speed in m/s (hover to see current wind gust speed)